Location: ?
(35.4064°N, 139.3593°E)
Time: 15:09:05
(UTC+00:00)

ACS3 Solar Sail - Pass Details

Date: 21 June 2024
Orbit: 993 x 1023 km, 97.4° (Epoch: 19 July)

Event Time Altitude Azimuth Distance (km) Brightness Sun altitude
Exits shadow 13:39:28 17° 245° (WSW) 2,284 6.6 -29.2°
Maximum altitude 13:41:25 20° 269° (W) 2,144 6.7 -29.3°
Drops below altitude 10° 13:45:46 10° 314° (NW) 2,766 7.9 -29.5°
Sets 13:49:03 0° 331° (NNW) 3,717 8.9 -29.7°
